map of UDI home
Great Circle Mapper logo
UDI - Airport
Location
City:  Uberlândia, Minas Gerais, Brazil
Name:Ten. Cel. Av. César Bombonato Airport
ICAO / IATA:SBUL / UDI

Details
Type:Airport (Aerodrome, Airfield)
Use:Public/Civil
Latitude:18°52'58"S (-18.882843)
Longitude:48°13'32"W (-48.225593)
Datum:WGS 1984
Elevation:3094 ft (943 m)
Variation:20.99°W (WMM2015 magnetic declination)
-0.11° annual change
Runways:1
Longest:6398 × 148 ft (1950 × 45 m), paved

Time
Time Zone:UTC-3 (DST-2)
Local Time:

Weather
METAR:SBUL 301700Z 01010KT 9999 FEW049 29/10 Q1022
TAF:SBUL 300907Z 3012/3024 06010KT CAVOK TN22/3012Z TX30/3018Z
BECMG 3012/3014 03010KT
BECMG 3017/3019 03004KT
BECMG 3021/3023 10003KT
RMK PGF

Related Locations
Nearby:
Farthest:MMD: 11950 mi / 19231 km
Minami Daito Jima, Okinawa, JP

Find:

   beyond  
but within

Other Information
Maps:
NOTAMs:
Links:
Sources:

  
flag of Brazil
flag of Minas Gerais
  

Sectional Chart

Flight Planning
at skyvector.com

Satellite Image

Google Maps Satellite view

 

Copyright © 2004-2015 Karl L. Swartz. All rights reserved.
The Great Circle Mapper name and logo are trademarks of the Great Circle Mapper.
All other trademarks mentioned herein belong to their respective owners.
Please see credits for attibutions and further copyright information.

  Follow gcmap on Facebook Follow gcmap on Twitter Follow gcmap on Google+

hCard Microformat

Geo Microformat